Weather Roundup
Issued by NWS

Home | Current Version | Previous Version | Graphics & Text | Print | Product List | Glossary Off
Versions: 1 2 3 4 5 6 7 8 9 10 11 12 13 14 15 16 17 18 19 20 21 22 23 24 25 26 27 28 29 30 31 32 33 34 35 36 37 38 39 40 41 42 43 44 45 46 47 48 49 50

000
NZUS93 KARX 010910
HRRWXR

CURRENT HOURLY OBSERVATIONS ACROSS
MUCH OF THE UPPER MISSISSIPPI VALLEY
NATIONAL WEATHER SERVICE LA CROSSE WI
400 AM CDT MON SEP 01 2014


...SOUTHEAST MINNESOTA...


CITY           SKY/WX    TMP DP  RH WIND       PRES   REMARKS
ROCHESTER      CLOUDY    64  61  90 S12       29.68F
ROCHESTER/MAYO CLOUDY    64  62  91 S10G20    29.67F
WINONA         CLOUDY    66  61  82 SE3       29.66F
AUSTIN         CLOUDY    64  63  94 S9G17     29.67F
ALBERT LEA     CLOUDY    64  64 100 S7        29.67F
DODGE CENTER   CLOUDY    64  63  94 S15       29.67F
PRESTON        CLOUDY    63  63 100 CALM      29.69F
OWATONNA       CLOUDY    64  63  94 S10       29.68S
FARIBAULT      CLOUDY    66  63  88 S5        29.67S
$$

...ELSEWHERE IN MINNESOTA...


CITY           SKY/WX    TMP DP  RH WIND       PRES   REMARKS
MINNEAPOLIS    LGT RAIN  66  64  93 SW7       29.65R FOG
INTNL FALLS    CLOUDY    59  58  96 W9        29.58S
DULUTH         LGT RAIN  65  62  90 NW8       29.58F
RED WING       RAIN      66  63  88 CALM      29.66S
REDWOOD FALLS  TSTM      63  61  93 N5        29.68R
MANKATO        CLOUDY    64  61  88 SW8       29.66S
WORTHINGTON    MOCLDY    64  63  94 NW10      29.70S
FAIRMONT       CLOUDY    64  61  88 SW6       29.67F
$$

...SOUTHWEST WISCONSIN...


CITY           SKY/WX    TMP DP  RH WIND       PRES   REMARKS
LA CROSSE      CLOUDY    66  62  87 CALM      29.65R
PRAIRIE DU CHI DRIZZLE   65  62  89 SE8       29.69R
BOSCOBEL       CLOUDY    67  62  84 SW6       29.70F
LONE ROCK      LGT RAIN  72  61  68 SE12      29.71F
PLATTEVILLE    CLOUDY    65  64  96 S10       29.79F
FORT MC COY    CLOUDY    73  53  49 W14       29.67F
CAMP DOUGLAS   CLOUDY    71  59  67 SE7       29.67F
VIROQUA        CLOUDY    67  58  73 S18G26    29.67F
WIS DELLS      MOCLDY    68  57  68 S10       29.73F
$$

...ELSEWHERE IN WISCONSIN...


CITY           SKY/WX    TMP DP  RH WIND       PRES   REMARKS
MILWAUKEE      MOCLDY    73  69  87 SW10      29.79F
MADISON        PTCLDY    73  61  65 W6        29.78S
GREEN BAY      MOCLDY    70  68  93 S7        29.73F
EAU CLAIRE     CLOUDY    65  65 100 W3        29.66R
BLACK RVR FLS  DRIZZLE   64  64 100 W8        29.67S
MEDFORD        DRIZZLE   64  60  84 SW13G18   29.69R
WAUSAU         CLOUDY    70  59  68 SW9       29.68S
WIS RAPIDS     CLOUDY    72  57  59 SW12      29.70F
MARSHFIELD     LGT RAIN  67  59  75 SW9       29.69F
RICE LAKE      CLOUDY    65  64  94 S8        29.66R
$$

...NORTHEAST IOWA...


CITY           SKY/WX    TMP DP  RH WIND       PRES   REMARKS
WATERLOO       CLOUDY    65  63  93 SE13      29.69S
DUBUQUE        RAIN      64  63  96 SE10      29.78F
DECORAH        CLOUDY    63  63 100 S8        29.68R
MASON CITY     CLOUDY    66  63  90 SW15      29.70S
CHARLES CITY   CLOUDY    64  63  94 S7        29.68F
OELWEIN        CLOUDY    64  63  94 SE9       29.71F
$$

...ELSEWHERE IN IOWA...


CITY           SKY/WX    TMP DP  RH WIND       PRES   REMARKS
DES MOINES     CLOUDY    68  63  84 S13       29.71F
IOWA CITY      CLOUDY    65  65 100 SE12      29.75F
FORT DODGE     CLOUDY    66  64  94 S12       29.70F
MARSHALLTOWN   CLOUDY    66  63  90 S10       29.72R
CEDAR RAPIDS   CLOUDY    64  64 100 SE13      29.71F
$$

...NORTHERN ILLINOIS...


CITY           SKY/WX    TMP DP  RH WIND       PRES   REMARKS
CHICAGO-OHARE  PTCLDY    74  67  78 S8        29.82F
DUPAGE         PTCLDY    72  69  90 S10       29.81F
CHICAGO-MIDWAY MOCLDY    75  71  87 S10       29.83F
MOLINE         LGT RAIN  67  64  90 NE3       29.78F
ROCKFORD       CLOUDY    72  69  90 S6        29.81F
STERLING       CLOUDY    72  63  73 NW12      29.81S
PEORIA         MOCLDY    75  71  87 SW12      29.81F
$$

NOTE: "FAIR" INDICATES FEW OR NO CLOUDS BELOW 12,000 FEET WITH NO
SIGNIFICANT WEATHER AND/OR OBSTRUCTIONS TO VISIBILITY. WIND
SPEEDS ARE IN MILES-PER-HOUR.



USA.gov is the U.S. government's official web portal to all federal, state and local government web resources and services.